Date String (YYYY-MM-DD hh:mm:ss) UTC,Instrument flags,absolute air pressure of the measurement (hPa),sample flow rate (lpm),inlet stack bypass flow (lpm),air temperature of the measurement (°C),ambient temperature measured by the external sensor (°C),aerosol sample conditioner tube jacket temperature (°C),OPC LED temperature (°C),internal box temperature (°C),relative humidity of the measurement (%),span deviation,mass concentration of particles derived from Lorenz-Mie calculation of OPC scattering (μg/m³),mass concentration of particles derived from Lorenz-Mie calculation of OPC scattering (μg/m³),mass concentration of particles derived from Lorenz-Mie calculation of OPC scattering (μg/m³)
DateTimeUTC,F1_M11,P_M11,Q1_M11,Q2_M11,T1_M11,T2_M11,T3_M11,T4_M11,T5_M11,U1_M11,ZSPAN_M11,X2_M11,X0_M11,X1_M11
2024-06-12 00:00:00,SystemResetWarning,0827.8,4.98,000.00,029.1,027.0,000.0,037.4,030.2,026.6,0000.0,0006.96,0021.66,0005.45
2024-06-12 00:01:00,SystemResetWarning,0827.7,5.01,000.00,028.7,025.6,000.0,037.4,029.4,026.7,0000.0,0006.99,0022.94,0005.45
2024-06-12 00:02:00,SystemResetWarning,0827.8,5.01,000.00,028.6,025.8,000.0,037.3,029.5,027.1,0000.0,0007.01,0023.26,0005.46
2024-06-12 00:03:00,SystemResetWarning,0827.8,5.00,000.00,028.6,026.3,000.0,037.2,029.8,027.3,0000.0,0007.03,0022.88,0005.47
2024-06-12 00:04:00,SystemResetWarning,0827.8,5.00,000.00,028.6,026.8,000.0,037.2,030.1,027.6,0000.0,0006.96,0023.25,0005.48
2024-06-12 00:05:00,SystemResetWarning,0827.8,5.00,000.00,028.7,027.2,000.0,037.1,030.3,027.4,0000.0,0006.96,0022.65,0005.50
2024-06-12 00:06:00,SystemResetWarning,0827.8,5.00,000.00,028.8,027.6,000.0,037.1,030.5,027.1,0000.0,0006.93,0022.52,0005.51
2024-06-12 00:07:00,SystemResetWarning,0827.8,5.00,000.00,028.9,028.0,000.0,037.1,030.7,027.5,0000.0,0006.96,0023.18,0005.52
2024-06-12 00:08:00,SystemResetWarning,0827.8,4.99,000.00,029.0,028.3,000.0,037.1,030.8,027.1,0000.0,0006.94,0023.03,0005.52
2024-06-12 00:09:00,SystemResetWarning,0827.8,4.99,000.00,029.1,028.5,000.0,037.2,030.9,026.7,0000.0,0006.94,0022.45,0005.52
2024-06-12 00:10:00,SystemResetWarning,0827.8,5.00,000.00,029.2,028.7,000.0,037.2,031.1,026.6,0000.0,0006.92,0022.44,0005.52
2024-06-12 00:11:00,SystemResetWarning,0827.9,5.01,000.00,029.3,028.9,000.0,037.3,031.2,026.5,0000.0,0006.93,0020.84,0005.53
2024-06-12 00:12:00,SystemResetWarning,0827.9,5.00,000.00,029.3,028.6,000.0,037.3,031.0,026.2,0000.0,0006.86,0018.93,0005.52
2024-06-12 00:13:00,SystemResetWarning,0827.8,5.00,000.00,029.0,026.5,000.0,037.4,029.9,026.8,0000.0,0006.84,0018.66,0005.52
2024-06-12 00:14:00,SystemResetWarning,0827.8,5.01,000.00,028.7,025.3,000.0,037.4,029.3,027.3,0000.0,0006.86,0018.71,0005.50
2024-06-12 00:15:00,SystemResetWarning,0827.8,5.01,000.00,028.5,025.8,000.0,037.3,029.5,027.3,0000.0,0006.90,0018.12,0005.50
2024-06-12 00:16:00,SystemResetWarning,0827.7,4.99,000.00,028.5,026.3,000.0,037.2,029.8,027.5,0000.0,0006.89,0017.04,0005.48
2024-06-12 00:17:00,SystemResetWarning,0827.8,5.00,000.00,028.6,026.7,000.0,037.1,030.1,027.8,0000.0,0006.92,0017.19,0005.48
2024-06-12 00:18:00,SystemResetWarning,0827.7,5.01,000.00,028.7,027.2,000.0,037.1,030.3,027.9,0000.0,0006.88,0016.12,0005.48
2024-06-12 00:19:00,SystemResetWarning,0827.8,5.00,000.00,028.7,027.6,000.0,037.1,030.5,027.8,0000.0,0006.84,0015.83,0005.48
2024-06-12 00:20:00,SystemResetWarning,0827.7,4.99,000.00,028.8,027.9,000.0,037.1,030.7,027.5,0000.0,0006.89,0015.74,0005.49
2024-06-12 00:21:00,SystemResetWarning,0827.8,4.99,000.00,028.9,028.3,000.0,037.1,030.8,027.3,0000.0,0006.92,0016.06,0005.49
2024-06-12 00:22:00,SystemResetWarning,0827.8,5.01,000.00,029.0,028.5,000.0,037.2,030.9,027.0,0000.0,0006.94,0015.91,0005.50
2024-06-12 00:23:00,SystemResetWarning,0827.8,5.01,000.00,029.1,028.7,000.0,037.2,031.0,026.9,0000.0,0006.95,0016.38,0005.50
2024-06-12 00:24:00,SystemResetWarning,0827.8,5.00,000.00,029.2,028.9,000.0,037.2,031.2,026.8,0000.0,0006.99,0016.61,0005.50
2024-06-12 00:25:00,SystemResetWarning,0827.8,4.99,000.00,029.3,029.0,000.0,037.3,031.2,026.1,0000.0,0006.96,0018.23,0005.50
2024-06-12 00:26:00,SystemResetWarning,0827.8,4.99,000.00,029.2,027.4,000.0,037.4,030.4,026.2,0000.0,0006.97,0019.62,0005.50
2024-06-12 00:27:00,SystemResetWarning,0827.7,5.01,000.00,028.8,025.7,000.0,037.4,029.5,026.9,0000.0,0007.04,0020.65,0005.50
2024-06-12 00:28:00,SystemResetWarning,0827.7,5.02,000.00,028.6,025.7,000.0,037.4,029.5,027.4,0000.0,0007.02,0021.46,0005.50
2024-06-12 00:29:00,SystemResetWarning,0827.7,4.99,000.00,028.6,026.2,000.0,037.3,029.7,027.2,0000.0,0007.04,0024.69,0005.49
2024-06-12 00:30:00,SystemResetWarning,0827.8,5.00,000.00,028.6,026.7,000.0,037.2,030.0,026.8,0000.0,0007.05,0026.02,0005.48
2024-06-12 00:31:00,SystemResetWarning,0827.8,5.01,000.00,028.7,027.2,000.0,037.2,030.3,026.8,0000.0,0006.96,0026.43,0005.46
2024-06-12 00:32:00,SystemResetWarning,0827.8,4.99,000.00,028.7,027.6,000.0,037.1,030.5,026.6,0000.0,0006.87,0025.40,0005.45
2024-06-12 00:33:00,SystemResetWarning,0827.8,5.00,000.00,028.8,027.9,000.0,037.1,030.6,026.5,0000.0,0006.76,0026.41,0005.42
2024-06-12 00:34:00,SystemResetWarning,0827.7,5.00,000.00,028.9,028.2,000.0,037.1,030.8,026.3,0000.0,0006.77,0027.87,0005.41
2024-06-12 00:35:00,SystemResetWarning,0827.7,5.00,000.00,029.0,028.5,000.0,037.2,030.9,026.2,0000.0,0006.72,0027.91,0005.39
2024-06-12 00:36:00,SystemResetWarning,0827.8,4.99,000.00,029.1,028.7,000.0,037.2,031.0,026.1,0000.0,0006.74,0026.19,0005.38
2024-06-12 00:37:00,SystemResetWarning,0827.8,4.99,000.00,029.2,028.9,000.0,037.3,031.1,026.0,0000.0,0006.66,0025.29,0005.36
2024-06-12 00:38:00,SystemResetWarning,0827.8,5.00,000.00,029.3,028.8,000.0,037.3,031.1,026.0,0000.0,0006.56,0026.25,0005.36
2024-06-12 00:39:00,SystemResetWarning,0827.7,5.00,000.00,029.1,026.8,000.0,037.4,030.1,026.3,0000.0,0006.52,0026.38,0005.33
2024-06-12 00:40:00,SystemResetWarning,0827.7,5.00,000.00,028.7,025.3,000.0,037.4,029.4,026.8,0000.0,0006.49,0024.75,0005.32
2024-06-12 00:41:00,SystemResetWarning,0827.7,5.02,000.00,028.5,025.7,000.0,037.3,029.5,027.0,0000.0,0006.54,0024.99,0005.32
2024-06-12 00:42:00,SystemResetWarning,0827.7,4.99,000.00,028.5,026.1,000.0,037.2,029.7,027.2,0000.0,0006.60,0024.97,0005.33
2024-06-12 00:43:00,SystemResetWarning,0827.8,5.00,000.00,028.6,026.6,000.0,037.2,030.0,027.1,0000.0,0006.65,0025.54,0005.32
2024-06-12 00:44:00,SystemResetWarning,0827.8,5.00,000.00,028.6,027.1,000.0,037.1,030.2,026.3,0000.0,0006.70,0024.65,0005.34
2024-06-12 00:45:00,SystemResetWarning,0827.8,5.01,000.00,028.7,027.5,000.0,037.1,030.4,025.7,0000.0,0006.68,0023.25,0005.34
2024-06-12 00:46:00,SystemResetWarning,0827.8,4.99,000.00,028.8,027.8,000.0,037.1,030.6,025.8,0000.0,0006.71,0024.42,0005.35
2024-06-12 00:47:00,SystemResetWarning,0827.8,5.00,000.00,028.9,028.1,000.0,037.1,030.7,026.0,0000.0,0006.68,0025.26,0005.35
2024-06-12 00:48:00,SystemResetWarning,0827.8,5.00,000.00,029.0,028.4,000.0,037.1,030.9,026.8,0000.0,0006.72,0024.97,0005.36
2024-06-12 00:49:00,SystemResetWarning,0827.8,5.00,000.00,029.1,028.6,000.0,037.2,031.0,026.3,0000.0,0006.72,0024.15,0005.34
2024-06-12 00:50:00,SystemResetWarning,0827.8,5.00,000.00,029.2,028.8,000.0,037.2,031.1,026.0,0000.0,0006.73,0024.73,0005.33
2024-06-12 00:51:00,SystemResetWarning,0827.8,4.99,000.00,029.3,029.0,000.0,037.3,031.2,025.9,0000.0,0006.69,0024.10,0005.33
2024-06-12 00:52:00,SystemResetWarning,0827.8,4.99,000.00,029.4,029.1,000.0,037.3,031.3,026.6,0000.0,0006.67,0023.16,0005.32
2024-06-12 00:53:00,SystemResetWarning,0827.8,5.00,000.00,029.5,028.9,000.0,037.4,031.2,026.0,0000.0,0006.62,0023.11,0005.32
2024-06-12 00:54:00,SystemResetWarning,0827.7,5.00,000.00,029.2,026.9,000.0,037.5,030.2,026.1,0000.0,0006.62,0022.74,0005.32
2024-06-12 00:55:00,SystemResetWarning,0827.7,5.00,000.00,028.9,025.6,000.0,037.5,029.6,026.7,0000.0,0006.64,0023.00,0005.31
2024-06-12 00:56:00,SystemResetWarning,0827.7,5.00,000.00,028.7,025.9,000.0,037.4,029.6,027.8,0000.0,0006.69,0023.70,0005.30
2024-06-12 00:57:00,SystemResetWarning,0827.7,5.00,000.00,028.7,026.4,000.0,037.3,029.9,027.9,0000.0,0006.72,0022.25,0005.31
2024-06-12 00:58:00,SystemResetWarning,0827.7,5.00,000.00,028.7,026.8,000.0,037.2,030.2,029.0,0000.0,0006.79,0021.78,0005.31
2024-06-12 00:59:00,SystemResetWarning,0827.7,5.00,000.00,028.8,027.3,000.0,037.2,030.4,027.7,0000.0,0006.77,0021.16,0005.31
